Date String (YYYY-MM-DD hh:mm:ss) UTC,Instrument flags,absolute air pressure of the measurement (hPa),sample flow rate (lpm),inlet stack bypass flow (lpm),air temperature of the measurement (°C),ambient temperature measured by the external sensor (°C),aerosol sample conditioner tube jacket temperature (°C),OPC LED temperature (°C),internal box temperature (°C),relative humidity of the measurement (%),span deviation,mass concentration of particles derived from Lorenz-Mie calculation of OPC scattering (μg/m³),mass concentration of particles derived from Lorenz-Mie calculation of OPC scattering (μg/m³),mass concentration of particles derived from Lorenz-Mie calculation of OPC scattering (μg/m³)
DateTimeUTC,F1_M11,P_M11,Q1_M11,Q2_M11,T1_M11,T2_M11,T3_M11,T4_M11,T5_M11,U1_M11,ZSPAN_M11,X0_M11,X2_M11,X1_M11
2023-11-30 15:00:00,SystemResetWarning,0823.6,5.00,000.00,019.3,018.5,000.0,027.7,020.4,12.1,0000.0,0008.44,0004.13,0003.80
2023-11-30 15:01:00,SystemResetWarning,0823.6,5.00,000.00,019.3,018.5,000.0,027.7,020.4,12.1,0000.0,0008.48,0004.14,0003.80
2023-11-30 15:02:00,SystemResetWarning,0823.6,5.01,000.00,019.3,018.5,000.0,027.6,020.4,12.1,0000.0,0008.43,0004.15,0003.79
2023-11-30 15:03:00,SystemResetWarning,0823.6,5.01,000.00,019.3,018.5,000.0,027.6,020.4,12.1,0000.0,0008.39,0004.13,0003.78
2023-11-30 15:04:00,SystemResetWarning,0823.6,5.00,000.00,019.3,018.5,000.0,027.6,020.4,12.0,0000.0,0008.90,0004.14,0003.78
2023-11-30 15:05:00,SystemResetWarning,0823.6,5.00,000.00,019.3,018.5,000.0,027.6,020.3,12.0,0000.0,0009.01,0004.15,0003.78
2023-11-30 15:06:00,SystemResetWarning,0823.6,5.00,000.00,019.3,018.5,000.0,027.6,020.4,12.0,0000.0,0008.59,0004.14,0003.78
2023-11-30 15:07:00,SystemResetWarning,0823.6,5.00,000.00,019.3,018.5,000.0,027.6,020.4,12.0,0000.0,0008.19,0004.14,0003.77
2023-11-30 15:08:00,SystemResetWarning,0823.6,5.00,000.00,019.3,018.5,000.0,027.6,020.4,12.0,0000.0,0007.79,0004.12,0003.76
2023-11-30 15:09:00,SystemResetWarning,0823.6,5.00,000.00,019.3,018.5,000.0,027.6,020.4,12.0,0000.0,0007.66,0004.10,0003.75
2023-11-30 15:10:00,SystemResetWarning,0823.6,5.00,000.00,019.3,018.5,000.0,027.6,020.4,12.0,0000.0,0007.63,0004.09,0003.76
2023-11-30 15:11:00,SystemResetWarning,0823.6,4.99,000.00,019.3,018.5,000.0,027.6,020.4,11.9,0000.0,0007.68,0004.12,0003.76
2023-11-30 15:12:00,SystemResetWarning,0823.6,5.00,000.00,019.2,018.5,000.0,027.6,020.4,11.8,0000.0,0007.61,0004.09,0003.75
2023-11-30 15:13:00,SystemResetWarning,0823.6,5.00,000.00,019.3,018.5,000.0,027.6,020.4,11.7,0000.0,0007.82,0004.08,0003.77
2023-11-30 15:14:00,SystemResetWarning,0823.6,5.00,000.00,019.3,018.5,000.0,027.6,020.4,11.7,0000.0,0008.22,0004.08,0003.78
2023-11-30 15:15:00,SystemResetWarning,0823.6,5.01,000.00,019.2,018.5,000.0,027.6,020.4,11.7,0000.0,0007.83,0004.06,0003.77
2023-11-30 15:16:00,SystemResetWarning,0823.6,5.01,000.00,019.3,018.5,000.0,027.6,020.4,11.8,0000.0,0007.58,0004.02,0003.75
2023-11-30 15:17:00,SystemResetWarning,0823.6,5.00,000.00,019.3,018.5,000.0,027.6,020.4,11.8,0000.0,0007.45,0004.00,0003.74
2023-11-30 15:18:00,SystemResetWarning,0823.6,4.99,000.00,019.3,018.5,000.0,027.6,020.4,12.0,0000.0,0007.41,0003.97,0003.72
2023-11-30 15:19:00,SystemResetWarning,0823.6,5.00,000.00,019.3,018.6,000.0,027.6,020.4,12.0,0000.0,0007.40,0003.97,0003.71
2023-11-30 15:20:00,SystemResetWarning,0823.6,4.99,000.00,019.3,018.6,000.0,027.6,020.4,12.1,0000.0,0007.46,0004.00,0003.72
2023-11-30 15:21:00,SystemResetWarning,0823.6,5.00,000.00,019.3,018.6,000.0,027.6,020.4,12.7,0000.0,0007.51,0004.01,0003.71
2023-11-30 15:22:00,SystemResetWarning,0823.6,5.01,000.00,019.3,018.6,000.0,027.6,020.4,13.1,0000.0,0007.47,0003.98,0003.69
2023-11-30 15:23:00,SystemResetWarning,0823.6,5.01,000.00,019.3,018.6,000.0,027.6,020.5,12.6,0000.0,0007.41,0003.98,0003.70
2023-11-30 15:24:00,SystemResetWarning,0823.6,5.00,000.00,019.3,018.6,000.0,027.6,020.4,12.7,0000.0,0007.19,0003.99,0003.70
2023-11-30 15:25:00,SystemResetWarning,0823.6,5.00,000.00,019.3,018.6,000.0,027.6,020.4,12.6,0000.0,0006.22,0003.98,0003.69
2023-11-30 15:26:00,SystemResetWarning,0823.7,4.99,000.00,019.3,018.6,000.0,027.6,020.5,12.4,0000.0,0006.27,0003.97,0003.69
2023-11-30 15:27:00,SystemResetWarning,0823.7,5.00,000.00,019.3,018.6,000.0,027.6,020.5,12.2,0000.0,0006.69,0004.00,0003.70
2023-11-30 15:28:00,SystemResetWarning,0823.7,4.99,000.00,019.3,018.6,000.0,027.6,020.5,12.7,0000.0,0006.76,0004.00,0003.71
2023-11-30 15:29:00,SystemResetWarning,0823.7,5.00,000.00,019.3,018.6,000.0,027.6,020.5,13.0,0000.0,0006.92,0004.04,0003.72
2023-11-30 15:30:00,SystemResetWarning,0823.6,5.00,000.00,019.3,018.6,000.0,027.6,020.5,12.8,0000.0,0007.02,0004.06,0003.72
2023-11-30 15:31:00,SystemResetWarning,0823.7,5.00,000.00,019.3,018.7,000.0,027.6,020.5,12.4,0000.0,0007.03,0004.07,0003.72
2023-11-30 15:32:00,SystemResetWarning,0823.7,5.00,000.00,019.3,018.7,000.0,027.6,020.5,12.0,0000.0,0006.89,0004.04,0003.73
2023-11-30 15:33:00,SystemResetWarning,0823.7,5.00,000.00,019.3,018.7,000.0,027.6,020.5,12.2,0000.0,0007.16,0004.05,0003.73
2023-11-30 15:34:00,SystemResetWarning,0823.7,4.99,000.00,019.3,018.7,000.0,027.6,020.5,12.7,0000.0,0007.74,0004.07,0003.73
2023-11-30 15:35:00,SystemResetWarning,0823.7,5.00,000.00,019.3,018.7,000.0,027.6,020.5,13.0,0000.0,0007.70,0004.05,0003.73
2023-11-30 15:36:00,SystemResetWarning,0823.7,4.99,000.00,019.4,018.7,000.0,027.6,020.5,13.2,0000.0,0007.99,0004.11,0003.74
2023-11-30 15:37:00,SystemResetWarning,0823.7,5.00,000.00,019.4,018.7,000.0,027.6,020.6,13.1,0000.0,0007.99,0004.12,0003.74
2023-11-30 15:38:00,SystemResetWarning,0823.7,5.01,000.00,019.4,018.7,000.0,027.6,020.6,13.0,0000.0,0008.01,0004.12,0003.74
2023-11-30 15:39:00,SystemResetWarning,0823.7,5.00,000.00,019.4,018.7,000.0,027.6,020.6,12.9,0000.0,0008.07,0004.14,0003.75
2023-11-30 15:40:00,SystemResetWarning,0823.7,4.99,000.00,019.4,018.7,000.0,027.7,020.6,13.1,0000.0,0008.00,0004.12,0003.76
2023-11-30 15:41:00,SystemResetWarning,0823.7,4.99,000.00,019.4,018.7,000.0,027.7,020.6,13.6,0000.0,0008.06,0004.13,0003.75
2023-11-30 15:42:00,SystemResetWarning,0823.7,5.01,000.00,019.4,018.7,000.0,027.7,020.6,13.0,0000.0,0008.13,0004.16,0003.76
2023-11-30 15:43:00,SystemResetWarning,0823.7,5.01,000.00,019.4,018.7,000.0,027.7,020.7,12.7,0000.0,0008.19,0004.18,0003.76
2023-11-30 15:44:00,SystemResetWarning,0823.7,5.01,000.00,019.4,018.8,000.0,027.7,020.7,12.5,0000.0,0008.30,0004.20,0003.76
2023-11-30 15:45:00,SystemResetWarning,0823.7,5.00,000.00,019.4,018.8,000.0,027.7,020.7,12.5,0000.0,0007.72,0004.21,0003.76
2023-11-30 15:46:00,SystemResetWarning,0823.8,5.00,000.00,019.5,018.8,000.0,027.7,020.7,12.5,0000.0,0007.69,0004.21,0003.76
2023-11-30 15:47:00,SystemResetWarning,0823.7,5.00,000.00,019.5,018.8,000.0,027.7,020.7,12.3,0000.0,0007.50,0004.18,0003.76
2023-11-30 15:48:00,SystemResetWarning,0823.7,4.99,000.00,019.5,018.8,000.0,027.7,020.7,12.1,0000.0,0007.36,0004.15,0003.76
2023-11-30 15:49:00,SystemResetWarning,0823.7,5.00,000.00,019.5,018.8,000.0,027.7,020.7,12.2,0000.0,0007.24,0004.17,0003.77
2023-11-30 15:50:00,SystemResetWarning,0823.7,5.00,000.00,019.5,018.8,000.0,027.7,020.7,12.4,0000.0,0006.92,0004.17,0003.77
2023-11-30 15:51:00,SystemResetWarning,0823.7,5.01,000.00,019.5,018.8,000.0,027.7,020.7,12.4,0000.0,0006.92,0004.19,0003.78
2023-11-30 15:52:00,SystemResetWarning,0823.7,5.00,000.00,019.5,018.8,000.0,027.7,020.7,12.4,0000.0,0006.78,0004.18,0003.79
2023-11-30 15:53:00,SystemResetWarning,0823.7,5.00,000.00,019.5,018.8,000.0,027.7,020.8,12.6,0000.0,0006.54,0004.16,0003.82
2023-11-30 15:54:00,SystemResetWarning,0823.7,5.00,000.00,019.5,018.8,000.0,027.8,020.7,12.7,0000.0,0006.63,0004.20,0003.84
2023-11-30 15:55:00,SystemResetWarning,0823.7,5.00,000.00,019.5,018.8,000.0,027.8,020.7,13.0,0000.0,0006.56,0004.22,0003.87
2023-11-30 15:56:00,SystemResetWarning,0823.8,5.00,000.00,019.5,018.9,000.0,027.8,020.8,12.7,0000.0,0006.56,0004.22,0003.88
2023-11-30 15:57:00,SystemResetWarning,0823.8,5.00,000.00,019.6,018.9,000.0,027.8,020.8,12.9,0000.0,0006.60,0004.24,0003.90
2023-11-30 15:58:00,SystemResetWarning,0823.8,5.00,000.00,019.6,018.9,000.0,027.8,020.8,12.5,0000.0,0006.85,0004.30,0003.92
2023-11-30 15:59:00,SystemResetWarning,0823.8,5.00,000.00,019.6,018.9,000.0,027.8,020.8,12.4,0000.0,0006.93,0004.32,0003.94
